Location: *
(48.5167°S, 162.8333°W)
Time: 08:36:09
(UTC+00:00)

Daily predictions for brighter satellites

Satellite Brightness Start Highest point End
(mag) Time Altitude Azimuth Time Altitude Azimuth Time Altitude Azimuth
BREEZE-M DEB (TANK) 4.1 13:41:54 68° ENE 13:41:54 68° ENE 13:57:19 10° ENE
USA 229 DEB 4.0 13:45:31 60° ESE 13:45:31 60° ESE 13:51:31 10° ENE
USA 229 4.0 13:45:33 60° ESE 13:45:33 60° ESE 13:51:38 10° ENE
SL-16 R/B 3.5 13:55:13 35° S 13:55:13 35° S 13:58:33 10° SSE
NOSS 3-1 (A) 4.1 13:53:36 46° S 13:54:39 51° SE 14:00:16 10° ENE
Cosmos 2360 Rocket 3.0 13:57:05 49° SE 13:57:05 49° SE 14:01:17 10° SSE
Cosmos 2322 Rocket 3.3 14:02:49 38° S 14:02:49 38° S 14:06:24 10° SSE
SL-16 R/B 2.9 13:56:45 10° SSE 14:01:42 57° S 14:01:42 57° S
Cosmos 1980 Rocket 4.1 14:05:20 19° SSW 14:05:20 19° SSW 14:07:58 10° S
CZ-4C R/B 2.8 14:04:21 80° S 14:04:21 80° S 14:10:54 10° SE
H-2A R/B 4.0 14:01:53 10° SE 14:05:49 27° E 14:05:56 27° E
USA 215 3.3 14:04:46 10° ENE 14:11:22 75° SSE 14:12:30 62° SSW
Cosmos 2333 Rocket 3.3 14:12:17 36° NE 14:13:21 39° ENE 14:18:43 10° SE
Cosmos 2026 Rocket 3.9 14:11:40 10° S 14:18:09 84° E 14:18:21 82° ENE
ATLAS 2AS CENTAUR R/B 4.3 14:18:08 18° SSW 14:20:06 21° S 14:24:52 10° SE
NOSS 3-1 (C) 3.9 14:23:41 46° NE 14:23:41 46° NE 14:27:26 10° NE
ISS -0.8 14:24:26 17° ESE 14:24:26 17° ESE 14:25:24 10° E
Cosmos 2278 Rocket 3.4 14:20:42 10° SSW 14:26:06 40° SE 14:31:26 10° ENE
Cosmos 1428 Rocket 4.3 14:21:32 10° S 14:27:48 89° E 14:28:28 73° N
ATLAS CENTAUR R/B 3.6 14:29:49 20° S 14:29:49 20° S 14:31:37 10° SSE
Cosmos 1634 Rocket 3.9 14:27:58 73° N 14:28:39 87° E 14:35:05 10° S
Cosmos 1782 Rocket 4.1 14:38:30 59° SE 14:38:30 59° SE 14:42:29 10° SSE
SL-08 R/B 3.4 14:38:41 10° SSE 14:42:58 72° SSE 14:42:58 72° SSE
ALOS 2.6 14:41:19 10° NNE 14:45:59 66° ESE 14:50:42 10° S
STARLINK-1114 4.3 14:47:31 53° SE 14:47:31 53° SE 14:51:15 10° E
STARLINK-1216 4.3 14:48:47 51° ENE 14:48:47 51° ENE 14:52:20 10° ESE
Cosmos 2142 Rocket 4.4 14:46:17 45° N 14:48:23 89° W 14:54:39 10° S
Meteor 1-28 Rocket 4.3 14:46:47 10° SSE 14:49:25 41° SSE 14:49:25 41° SSE
STARLINK-1130 (DARKSAT) 4.1 14:52:17 57° SSE 14:52:17 57° SSE 14:56:14 10° E
STARLINK-1237 4.1 14:53:33 57° ENE 14:53:33 57° ENE 14:57:19 10° ESE
Cosmos 2219 Rocket 2.3 14:51:45 45° N 14:53:31 73° ENE 14:59:13 10° SSE
Cosmos 1452 Rocket 4.2 14:49:03 10° SSW 14:54:18 54° ESE 14:59:29 10° NE
Cosmos 1680 Rocket 3.7 14:54:36 56° SW 14:54:36 56° SW 14:59:38 10° SSE
Cosmos 1655 Rocket 4.2 14:50:22 10° S 14:56:53 78° E 15:03:20 10° NNE
STARLINK-1084 4.0 14:57:05 60° SSE 14:57:05 60° SSE 15:01:15 10° E
CZ-4C R/B 4.1 14:54:19 10° SSE 14:56:53 42° SSE 14:56:53 42° SSE
STARLINK-1202 3.9 14:58:22 64° NE 14:58:22 64° NE 15:02:20 10° ESE
STARLINK-1098 3.9 15:01:52 61° S 15:02:03 62° SSE 15:06:15 10° E
STARLINK-1109 4.5 15:05:52 40° NNE 15:05:52 40° NNE 15:08:49 10° NE
Cosmos 1544 3.3 15:05:51 73° E 15:05:51 73° E 15:09:32 10° SSE
STARLINK-1123 3.8 15:06:39 61° SSW 15:07:04 65° SSE 15:11:15 10° ENE
STARLINK-1246 3.6 15:07:55 73° N 15:08:03 74° NNE 15:12:17 10° ESE
SAR-Lupe-4 4.3 15:04:31 10° SSE 15:08:08 52° E 15:09:23 34° NNE
STARLINK-1091 4.4 15:10:39 41° N 15:10:39 41° N 15:13:45 10° NE
CZ-4B R/B 3.3 15:07:31 10° SSE 15:10:32 30° E 15:13:34 10° NNE
STARLINK-1203 3.5 15:11:08 76° NNW 15:11:26 82° NNE 15:15:44 10° ESE
METEOR-M 4.0 15:06:05 10° N 15:11:29 77° WNW 15:16:57 10° SSW
STARLINK-1097 3.8 15:11:26 58° SSW 15:12:02 68° SSE 15:16:15 10° ENE
STARLINK-1224 3.5 15:12:43 72° NNW 15:13:02 79° NNE 15:17:17 10° ESE
STARLINK-1072 4.3 15:15:30 40° N 15:15:30 40° N 15:18:43 10° NE
NOSS 2-3 (E) 4.3 15:07:48 11° SW 15:14:53 71° NW 15:20:20 10° NNE
Cosmos 2322 3.8 15:13:57 47° W 15:15:09 56° WSW 15:20:50 10° SSE
Cosmos 2279 Rocket 3.9 15:11:39 25° NNW 15:15:33 70° WSW 15:21:54 10° S
STARLINK-1099 3.8 15:16:13 54° SW 15:17:02 71° SSE 15:21:15 10° ENE
COSMOS 2428 2.6 15:14:40 35° NNW 15:17:14 84° WSW 15:23:03 10° SSE
STARLINK-1225 3.5 15:17:30 67° NW 15:18:02 83° NNE 15:22:17 10° ESE
STARLINK-1096 4.3 15:20:15 40° NNW 15:20:15 40° NNW 15:23:37 10° NE
Cosmos 2333 4.4 15:18:07 43° WNW 15:19:40 56° WSW 15:25:26 10° SSE
PAYLOAD B 4.3 15:14:19 10° NNE 15:19:55 81° ESE 15:25:39 10° SSW
STARLINK-1234 3.8 15:21:06 43° S 15:21:06 43° S 15:23:50 10° ESE
STARLINK-1209 3.8 15:21:42 43° S 15:21:42 43° S 15:24:27 10° ESE
STARLINK-1233 3.6 15:21:57 48° SSE 15:21:57 48° SSE 15:24:42 10° ESE
STARLINK-1212 3.6 15:22:22 49° SSE 15:22:22 49° SSE 15:25:08 10° ESE
STARLINK-1104 3.7 15:20:59 49° SW 15:22:01 74° SSE 15:26:14 10° ENE
STARLINK-1105 3.6 15:22:49 49° S 15:22:49 49° S 15:25:36 10° ESE
SL-8 R/B 3.6 15:21:23 49° W 15:22:42 89° N 15:27:37 10° E
COBE Rocket 3.9 15:17:35 10° SSE 15:22:52 87° WSW 15:27:46 11° NNW
STARLINK-1206 3.5 15:23:13 49° S 15:23:13 49° S 15:26:03 10° ESE
STARLINK-1230 3.6 15:22:17 61° WNW 15:23:01 88° NE 15:27:15 10° ESE
STARLINK-1247 3.5 15:23:39 49° S 15:23:39 49° S 15:26:30 10° ESE
ERBS 3.6 15:23:58 29° SSW 15:23:58 29° SSW 15:26:48 10° SE
STARLINK-1227 3.5 15:24:07 49° S 15:24:07 49° S 15:26:57 10° ESE
STARLINK-1218 3.5 15:24:32 49° S 15:24:32 49° S 15:27:24 10° ESE
STARLINK-1079 4.3 15:25:03 38° NNW 15:25:03 38° NNW 15:28:31 10° NNE
FENGYUN 3A 3.6 15:19:19 10° N 15:24:39 58° W 15:30:05 10° SSW
STARLINK-1226 3.5 15:24:57 49° S 15:24:57 49° S 15:27:50 10° ESE
STARLINK-1254 3.5 15:25:25 49° S 15:25:25 49° S 15:28:18 10° ESE
SAR-Lupe-1 4.2 15:21:49 10° SSE 15:25:30 75° ENE 15:27:30 25° N
STARLINK-1215 3.5 15:25:50 49° S 15:25:50 49° S 15:28:45 10° ESE
Cosmos 1743 4.5 15:27:33 20° SSW 15:27:33 20° SSW 15:29:12 10° S
STARLINK-1231 3.5 15:26:15 49° S 15:26:15 49° S 15:29:12 10° ESE
STARLINK-1232 3.4 15:27:07 49° S 15:27:07 49° S 15:30:06 10° ESE
STARLINK-1144 3.7 15:25:46 45° SW 15:27:00 78° SSE 15:31:13 10° ENE
STARLINK-1217 3.4 15:27:34 49° S 15:27:34 49° S 15:30:33 10° ESE
Meteor 1-21 4.1 15:21:58 10° SSW 15:27:40 68° W 15:33:20 10° N
STARLINK-1208 3.4 15:28:02 49° S 15:28:02 49° S 15:31:01 10° ESE
Cosmos 158 Rocket 4.4 15:27:34 37° WSW 15:27:58 38° WSW 15:32:37 10° S
STARLINK-1243 3.6 15:27:03 54° WNW 15:27:58 88° SSW 15:32:13 10° ESE
STARLINK-1229 3.4 15:28:25 49° S 15:28:25 49° S 15:31:27 10° ESE
STARLINK-1271 3.4 15:28:52 49° S 15:28:52 49° S 15:31:54 10° ESE
STARLINK-1270 3.4 15:29:18 49° S 15:29:18 49° S 15:32:22 10° ESE
STARLINK-1116 4.3 15:29:51 36° NNW 15:29:51 36° NNW 15:33:26 10° NNE
STARLINK-1154 3.4 15:29:43 49° SSW 15:29:43 49° SSW 15:32:48 10° ESE
Cosmos 1300 Rocket 3.7 15:25:33 10° N 15:29:59 78° E 15:34:31 10° SSE
STARLINK-1197 3.4 15:30:36 48° SSW 15:30:36 48° SSW 15:33:42 10° ESE
STARLINK-1189 3.4 15:31:01 48° SSW 15:31:01 48° SSW 15:34:09 10° ESE
STARLINK-1198 3.4 15:31:28 48° SSW 15:31:29 48° SSW 15:34:37 10° ESE
Cosmos 1975 3.2 15:31:47 45° WSW 15:31:51 45° WSW 15:35:53 10° S
STARLINK-1188 3.4 15:31:53 48° SSW 15:31:55 48° SSW 15:35:03 10° ESE
STARLINK-1103 3.6 15:30:33 41° WSW 15:31:59 82° SSE 15:36:12 10° ENE
NOSS 2-3 (D) 4.4 15:25:09 10° SW 15:32:11 59° WNW 15:37:33 10° NNE
STARLINK-1235 3.6 15:32:35 43° SSW 15:32:39 43° SSW 15:35:44 10° ESE
STARLINK-1236 3.6 15:31:50 48° WNW 15:32:57 84° SSW 15:37:12 10° ESE
STARLINK-1187 3.5 15:33:00 45° SSW 15:33:04 45° SSW 15:36:08 10° ESE
STARLINK-1199 3.4 15:33:49 47° SSW 15:33:56 47° SSW 15:37:02 10° ESE
STARLINK-1191 3.4 15:34:15 46° SSW 15:34:23 47° SSW 15:37:29 10° ESE
STARLINK-1210 3.4 15:34:41 46° SSW 15:34:50 47° SSW 15:37:57 10° ESE
STARLINK-1221 3.4 15:35:07 46° SSW 15:35:16 46° SSW 15:38:22 10° ESE
USA 229 DEB 4.1 15:33:07 27° WSW 15:35:32 35° WNW 15:41:22 10° N
USA 229 4.1 15:33:09 27° WSW 15:35:41 36° WNW 15:41:31 10° N
STARLINK-1219 3.4 15:35:34 46° SSW 15:35:44 46° SSW 15:38:50 10° ESE
STARLINK-1222 3.4 15:35:59 45° SSW 15:36:11 46° SSW 15:39:17 10° ESE
ERS-2 4.2 15:33:24 10° SSW 15:34:33 16° SSW 15:34:33 16° SSW
STARLINK-1211 3.4 15:36:26 45° SSW 15:36:39 46° SSW 15:39:45 10° ESE
STARLINK-1101 3.6 15:35:20 37° WSW 15:36:58 86° SSE 15:41:11 10° ENE
STARLINK-1214 3.4 15:36:51 45° SSW 15:37:05 46° SSW 15:40:11 10° ESE
STARLINK-1245 3.4 15:37:16 44° SSW 15:37:31 46° SSW 15:40:39 10° ESE
STARLINK-1238 3.4 15:37:44 44° SSW 15:38:00 45° SSW 15:41:06 10° ESE
SL-16 R/B 3.9 15:37:05 15° SW 15:38:13 16° SW 15:41:43 10° S
Abrixas rocket 2.7 15:38:12 40° N 15:38:36 43° NNE 15:41:31 10° E
STARLINK-67 3.9 15:38:49 29° S 15:38:49 29° S 15:41:05 10° ESE
STARLINK-1205 3.4 15:38:34 43° SW 15:38:53 45° SSW 15:42:00 10° ESE
STARLINK-1204 3.4 15:39:00 43° SW 15:39:20 45° SSW 15:42:27 10° ESE
STARLINK-1094 4.5 15:39:24 32° NW 15:39:26 32° NW 15:43:10 10° NNE
SL-16 R/B 4.4 15:35:03 10° NNE 15:39:40 26° ENE 15:44:20 10° SE
Cosmos 2360 Rocket 3.3 15:38:52 24° WSW 15:40:07 26° SW 15:44:54 10° SSE
H-2A R/B 2.7 15:37:36 10° S 15:41:52 38° WSW 15:43:01 33° W
STARLINK-1102 3.6 15:40:09 33° WSW 15:41:58 90° N 15:46:12 10° ENE
Okean 2 Rocket 3.1 15:38:09 11° NNW 15:42:26 67° W 15:47:00 10° S
STARLINK-1269 3.6 15:41:24 38° W 15:42:55 76° SSW 15:47:10 10° ESE
Cosmos 2151 Rocket 3.6 15:39:23 10° N 15:43:53 89° E 15:48:30 10° S
Sich 1 Rocket 4.1 15:43:09 31° WNW 15:44:39 41° WSW 15:49:04 10° S
NOSS 3-1 (A) 3.7 15:41:12 18° WSW 15:45:23 40° WNW 15:50:30 10° N
SL-16 R/B 4.0 15:41:39 10° S 15:45:47 18° SW 15:46:47 18° WSW
Cosmos 2322 Rocket 3.9 15:44:38 15° SW 15:46:00 16° SW 15:49:31 10° S
STARLINK-1111 3.6 15:44:54 30° WSW 15:46:55 85° NNW 15:51:08 10° ENE
NOSS 0 Rocket 4.0 15:40:43 10° NNW 15:46:57 86° ENE 15:53:17 10° SSE
STARLINK-1200 3.6 15:46:11 34° W 15:47:54 73° SSW 15:52:08 10° ESE
Cosmos 1689 Rocket 3.4 15:45:36 10° SSE 15:48:36 43° E 15:51:33 10° N
Cosmos 1420 Rocket 4.3 15:43:41 10° SW 15:48:43 43° WNW 15:53:43 10° N
CZ-4B DEB 4.3 15:44:11 10° N 15:49:40 54° W 15:55:12 10° SSW
Okean O Rocket 1.6 15:46:00 10° NNE 15:50:31 83° WNW 15:55:05 10° SSW
STARLINK-1073 3.6 15:49:40 27° WSW 15:51:54 81° NNW 15:56:06 10° ENE
STARLINK-1192 3.7 15:50:58 31° W 15:52:53 69° SSW 15:57:07 10° ESE
TIMED 4.4 15:49:20 12° NNW 15:53:23 76° WSW 15:57:51 10° SSE
CZ-4C R/B 3.7 15:49:33 20° WSW 15:53:29 32° SSW 15:59:12 10° SE
Cosmos 371 Rocket 3.2 15:49:34 10° SSW 15:54:28 66° WNW 15:59:18 10° N
USA 215 3.6 15:48:27 10° NNE 15:54:40 43° NW 15:59:51 15° WSW
Radarsat Rocket 4.2 15:49:57 10° NNE 15:56:16 77° WNW 16:03:31 10° SSW
SJ-7 4.4 15:52:20 10° N 15:56:29 71° WNW 16:00:47 10° SSW
STARLINK-1121 3.6 15:54:27 25° WSW 15:56:52 76° NNW 16:01:04 10° NE
Cosmos 2333 Rocket 2.7 15:54:20 22° WNW 15:57:37 42° SW 16:03:09 10° SSE
STARLINK-1244 3.7 15:55:45 28° W 15:57:53 66° SSW 16:02:06 10° ESE
Envisat 3.9 15:52:55 10° NE 15:57:53 53° ESE 16:02:55 10° S
Cosmos 2084 4.5 15:57:19 24° WSW 15:58:53 30° SW 16:02:44 10° SSE
ISS -3.7 15:57:26 30° WSW 15:58:59 72° NNW 16:02:26 10° ENE
Helios 1A Rocket 3.2 15:57:25 10° NNE 16:01:33 75° ESE 16:05:48 10° S
STARLINK-1106 3.6 15:59:15 22° WSW 16:01:52 72° NNW 16:06:03 10° NE
Cosmos 2237 Rocket 2.2 15:56:25 10° NNW 16:02:10 90° SW 16:07:57 10° SSE
STARLINK-1138 3.8 16:00:32 25° W 16:02:52 64° SSW 16:07:05 10° ESE
Meteor 1-12 Rocket 4.2 15:59:28 10° NNW 16:05:10 70° WSW 16:10:55 10° S
STARLINK-1201 3.8 16:04:43 23° WSW 16:06:18 40° S 16:09:27 10° ESE
STARLINK-1112 3.7 16:04:02 20° WSW 16:06:50 67° NNW 16:11:00 10° NE
STARLINK-1143 3.8 16:05:18 22° W 16:07:51 61° SSW 16:12:04 10° ESE
In-Cosmos 22 4.2 16:02:32 10° SSW 16:08:09 84° W 16:13:49 10° N
ATLAS CENTAUR R/B 3.8 16:06:50 10° SSW 16:08:15 11° SSW 16:09:42 10° S
Cosmos 2084 Rocket 3.9 16:05:17 10° SW 16:09:35 62° SE 16:13:47 10° NE
Cosmos 2297 4.1 16:04:23 10° SSW 16:10:10 70° ESE 16:15:51 10° NE
Cosmos 2278 Rocket 2.6 16:04:54 10° SW 16:10:12 40° WNW 16:15:28 10° N
BREEZE-M DEB (TANK) 3.1 16:09:30 21° W 16:11:29 85° NNW 16:19:13 10° ENE
STARLINK-1128 3.7 16:08:49 18° WSW 16:11:48 63° NNW 16:15:57 10° NE
STARLINK-1241 3.9 16:10:07 20° W 16:12:53 59° SSW 16:17:05 10° ESE
ATLAS 2AS CENTAUR R/B 4.2 16:07:37 10° SW 16:13:06 29° SSE 16:18:54 10° E
CZ-4B R/B 3.4 16:08:39 10° N 16:14:13 53° W 16:19:47 10° SSW
BREEZE M DEB (TANK) 3.8 16:11:32 12° NW 16:14:56 63° NNE 16:27:15 10° ESE
STARLINK-1228 4.0 16:13:17 18° WSW 16:15:00 33° S 16:17:47 10° ESE
Cosmos 1025 Rocket 3.6 16:12:04 10° SSW 16:16:09 36° W 16:20:12 10° NNW
STARLINK-1113 3.8 16:13:39 17° WSW 16:16:49 59° NNW 16:20:57 10° NE
Cosmos 1674 3.4 16:13:26 10° S 16:17:20 60° ESE 16:21:12 10° NNE
Cosmos 1943 Rocket 3.6 16:12:06 10° SSW 16:17:27 39° SE 16:22:42 10° ENE
STARLINK-1239 3.9 16:14:52 18° W 16:17:51 57° SSW 16:22:02 10° ESE
Cosmos 1331 Rocket 4.1 16:12:58 10° SSW 16:18:23 88° WNW 16:23:44 10° NNE
Cosmos 2292 Rocket 4.4 16:14:29 10° SSW 16:18:25 35° W 16:23:23 10° NNW
Cosmos 1048 Rocket 4.0 16:13:41 10° NNW 16:19:02 74° WSW 16:24:25 10° SSE
Cosmos 2266 Rocket 4.4 16:13:26 10° SSW 16:19:07 39° W 16:24:51 10° NNW
NOAA 12 4.4 16:14:02 10° NNE 16:19:19 76° ESE 16:24:41 10° SSW
Cosmos 2098 Rocket 3.6 16:14:50 10° SSW 16:21:06 70° W 16:25:59 10° N
STARLINK-1119 3.9 16:18:23 15° WSW 16:21:44 55° NW 16:25:50 10° NE
Cosmos 1242 Rocket 3.0 16:18:43 10° SSW 16:22:15 41° W 16:25:42 10° NNW
STARLINK-1240 4.0 16:19:40 16° W 16:22:52 55° SSW 16:27:02 10° ESE
H-2A R/B 2.9 16:19:24 10° N 16:23:16 54° W 16:27:10 10° SSW
ALOS 3.7 16:20:50 10° NW 16:23:52 17° W 16:26:57 10° SW
Cosmos 332 Rocket 4.1 16:21:37 10° SW 16:26:14 45° WNW 16:30:49 10° N
STARLINK-1114 4.0 16:23:11 14° WSW 16:26:42 51° NW 16:30:47 10° NE
Okean 1 Rocket 3.1 16:22:44 10° NNW 16:27:16 73° W 16:31:52 10° S
STARLINK-1216 4.0 16:24:27 15° W 16:27:52 53° SSW 16:32:01 10° ESE
SMAP 3.1 16:25:29 10° N 16:30:09 65° WNW 16:34:53 10° SSW
Cosmos 2369 Rocket 3.7 16:24:57 10° SSW 16:30:14 38° SE 16:35:30 10° ENE
Cosmos 1707 3.7 16:27:56 10° SSW 16:31:18 27° W 16:34:35 10° NNW
STARLINK-1130 (DARKSAT) 4.0 16:27:57 12° WSW 16:31:39 47° NW 16:35:41 10° NE
STARLINK-1237 4.1 16:29:13 13° W 16:32:50 52° SSW 16:36:59 10° ESE
STARLINK-1084 4.1 16:32:45 11° WSW 16:36:36 44° NW 16:40:36 10° NE
Okean-O 3.3 16:32:49 10° NNE 16:37:15 63° ESE 16:41:44 10° S
STARLINK-1202 4.1 16:34:02 12° W 16:37:52 50° SSW 16:42:01 10° ESE
Cosmos 2219 Rocket 3.3 16:33:31 10° W 16:38:03 25° SW 16:42:45 10° S
STARLINK-1098 4.3 16:37:35 10° WSW 16:41:34 41° NW 16:45:31 10° NNE
Cosmos 1271 Rocket 3.6 16:38:07 10° SSW 16:41:47 32° W 16:45:24 10° NNW
CZ-4B R/B 2.8 16:40:12 10° SSW 16:42:41 20° WSW 16:45:13 10° WNW
Cosmos 1805 3.4 16:38:46 10° N 16:42:43 81° E 16:46:44 10° SSE
CZ-3 R/B 4.3 16:28:50 10° W 16:45:14 23° NW 16:52:11 10° N
GP-B 3.3 16:41:54 10° NNW 16:46:18 54° W 16:50:47 10° S
STARLINK-1123 4.4 16:42:36 10° WSW 16:46:32 38° NW 16:50:25 10° NNE
SL-24 DEB 4.3 16:42:14 10° N 16:47:00 67° W 16:51:48 10° S
STARLINK-1246 4.2 16:43:45 10° W 16:47:52 48° S 16:51:59 10° ESE
Cosmos 1110 Rocket 4.3 16:43:53 10° SSW 16:48:59 46° WNW 16:54:03 10° N
S3M 4.4 16:43:32 10° N 16:49:38 72° E 16:55:50 10° SSE
STARLINK-1097 4.5 16:47:36 10° WSW 16:51:28 35° NW 16:55:18 10° NNE
STARLINK-1203 4.3 16:47:21 10° W 16:51:30 47° S 16:55:40 10° ESE
Okean 1-7 Rocket 3.8 16:47:49 10° S 16:52:31 87° E 16:57:08 10° N
STARLINK-1224 4.2 16:48:46 10° W 16:52:52 47° S 16:56:59 10° ESE
